Wind_Speed
59 62 61 63 60 60 58 63 68 68 70 75 82 82 86 84 84 78 72 64 63 63 65 66 70 72 72 71 70 71 72 72 73 74 74 75 76 75 75 75 74 72 67
58 63 54 56 59 63 64 67 72 78 81 84 86 85 84 77 71 68 63 64 67 69 72 73 72 70 70 72 72 75 76 77 79 80 79 79 81 81 80 81 80 76 72
58 57 60 64 66 69 75 71 73 76 79 84 82 80 77 75 67 66 67 69 71 75 76 76 75 74 73 75 79 81 83 85 86 86 86 87 88 86 84 82 80 77 72
67 69 67 69 70 73 74 71 76 80 82 81 78 76 69 66 67 70 72 75 78 79 77 75 75 76 78 81 83 85 87 87 89 91 93 92 90 89 87 85 82 79 75
55 61 66 73 73 76 75 76 78 80 81 76 74 67 68 68 70 74 77 79 81 80 78 78 80 83 86 87 87 87 88 91 93 93 93 92 92 91 90 89 87 85 82
74 71 71 72 79 76 81 80 81 79 77 74 66 66 68 72 74 78 80 81 80 80 82 85 88 89 90 90 90 91 94 95 95 95 97 99 100 100 100 98 98 96 94
68 68 72 78 80 84 79 81 80 78 74 69 68 67 71 75 79 81 82 81 81 83 86 89 92 91 90 92 94 96 96 96 99 102 104 107 106 105 102 100 99 97 94
69 75 79 74 72 73 76 77 80 70 68 71 71 71 73 74 80 82 83 84 86 89 91 93 93 93 97 98 94 95 98 104 107 111 112 112 109 106 102 100 98 96 94
75 75 72 77 76 77 76 75 68 68 69 70 73 76 78 81 83 80 84 89 91 92 94 93 94 97 95 97 100 103 106 111 114 114 113 111 107 103 100 98 95 94 94
71 73 69 71 69 66 65 66 68 70 73 73 75 80 83 85 85 88 86 89 93 94 94 96 96 95 98 103 107 109 112 113 114 113 112 107 102 97 94 92 92 93 93
66 67 64 62 62 63 68 68 71 74 75 77 80 79 81 84 88 92 94 96 92 93 95 95 97 102 105 109 110 110 109 110 110 107 104 100 95 91 89 86 86 86 88
56 55 57 60 64 66 67 71 74 76 79 80 81 81 83 86 89 92 94 95 95 98 97 99 104 106 110 109 108 109 108 105 104 101 99 96 91 85 82 79 79 80 82
56 56 60 64 66 67 70 73 77 78 78 77 78 82 87 90 94 95 95 96 99 99 100 104 109 112 110 109 108 107 106 103 102 97 92 88 85 80 77 73 70 72 75
59 60 63 64 66 67 75 76 78 78 79 79 81 86 91 93 95 95 96 99 100 103 107 109 108 109 110 109 107 103 101 98 93 88 82 78 76 75 74 73 70 69 71
63 62 63 65 68 75 80 81 80 81 82 83 86 91 95 96 96 97 98 102 102 104 111 115 113 109 108 105 101 99 94 88 84 80 75 71 68 67 67 68 69 68 67
64 63 66 68 71 81 83 82 83 85 86 88 90 94 97 99 99 100 103 106 107 110 112 116 115 113 110 103 97 90 84 80 77 73 69 65 62 60 60 62 63 64 65
64 66 69 72 80 84 84 84 86 89 93 95 95 96 100 100 103 105 108 108 112 114 116 117 116 112 104 103 94 84 78 74 70 67 66 62 58 57 56 57 58 59 61
63 66 73 79 83 84 84 87 91 94 96 97 98 100 100 100 105 108 109 112 116 119 119 117 116 110 104 96 88 79 74 69 65 63 62 58 55 54 52 53 54 54 56
70 73 79 82 83 83 87 91 96 99 98 101 103 102 104 106 110 113 113 118 121 122 119 116 113 108 101 92 84 76 72 67 62 60 58 54 51 50 48 49 50 50 52
74 78 81 80 83 86 88 94 98 100 102 103 105 107 108 111 114 115 119 123 123 123 119 115 110 105 97 88 80 74 70 64 58 57 53 50 52 46 45 47 46 46 48
77 79 82 84 87 88 93 96 98 100 101 104 107 107 110 113 114 118 123 125 124 121 118 111 105 100 91 85 77 70 66 61 56 54 52 41 54 45 43 43 44 43 45
79 82 85 88 90 94 97 98 100 101 104 106 107 110 113 114 118 123 125 124 124 120 115 107 101 94 88 82 74 68 63 58 55 50 51 40 48 44 41 39 40 41 42
83 85 87 89 93 96 97 99 102 103 105 107 110 113 115 118 122 125 124 123 120 116 113 101 98 89 84 78 71 66 61 57 52 49 50 42 42 40 39 38 38 38 38
86 87 89 93 95 97 99 103 105 105 107 111 113 116 119 123 125 124 124 119 117 112 104 97 91 83 80 73 66 62 57 56 51 47 47 46 38 36 37 39 36 36 36
87 90 93 94 97 101 104 106 106 107 111 114 116 120 123 124 124 122 119 116 114 108 94 89 85 79 76 69 62 58 55 55 52 46 43 43 41 33 35 38 38 33 35
88 90 93 97 100 103 105 107 110 112 114 116 120 120 121 122 122 118 116 113 109 100 88 81 81 74 69 63 60 56 54 54 50 46 41 40 38 37 29 36 36 35 34
Wind_Direction
269 269 274 279 281 288 285 287 291 289 293 295 300 302 302 304 306 305 304 302 302 303 302 303 302 301 300 298 295 294 293 292 289 287 285 284 283 282 282 282 281 281 280
266 267 273 275 283 277 283 286 287 291 296 299 298 303 307 307 305 300 300 303 304 303 302 302 300 297 295 296 296 295 293 291 290 288 287 285 284 283 283 282 282 280 279
266 271 272 271 275 274 283 288 292 296 299 300 304 308 306 304 301 301 302 302 302 303 301 299 297 295 292 292 293 293 292 291 290 289 288 287 288 286 285 282 280 278 275
267 269 271 276 274 277 286 293 295 299 299 303 305 307 303 301 301 302 302 302 302 301 300 299 297 296 295 294 293 292 292 291 291 291 290 288 286 285 283 280 278 274 271
271 269 269 272 280 284 293 293 301 301 303 304 303 301 298 299 300 301 301 301 301 301 300 298 297 298 298 297 295 293 291 291 290 289 288 287 285 284 283 281 278 274 270
267 274 280 284 280 291 290 298 299 301 302 301 298 298 298 300 301 301 301 301 301 300 299 299 299 299 299 296 295 294 294 293 291 290 289 288 287 286 284 281 279 277 273
278 282 287 286 285 290 295 297 299 298 297 296 295 298 303 302 302 302 301 299 299 298 299 300 299 298 297 296 296 295 294 294 292 291 290 289 288 287 285 282 279 276 273
278 282 287 292 293 293 294 295 295 293 294 296 299 301 301 299 300 300 299 299 300 300 300 301 300 300 300 299 298 297 296 295 295 293 292 291 289 287 284 281 278 274 270
280 285 288 290 290 292 292 293 293 295 297 299 301 302 300 300 300 299 298 300 300 301 301 301 301 301 301 301 301 299 298 297 295 294 292 289 288 284 280 277 273 270 266
279 286 287 288 291 291 292 294 294 298 299 300 303 300 300 301 300 299 299 301 302 302 303 303 304 304 303 302 302 301 299 296 295 293 291 290 287 283 278 274 270 266 262
281 282 286 290 292 294 295 296 296 298 299 301 300 300 300 301 301 302 304 304 304 304 305 305 305 306 305 304 301 300 298 297 296 294 291 288 285 281 278 274 268 263 259
286 292 290 290 293 295 294 297 297 298 299 298 298 300 301 300 301 303 305 306 308 308 307 307 308 307 305 303 302 302 301 300 296 293 291 289 286 283 279 274 269 264 257
288 288 286 289 292 292 295 297 297 297 297 298 300 303 303 304 305 307 308 309 309 308 308 309 309 307 306 305 306 306 304 301 297 295 293 290 287 284 280 277 271 265 259
281 284 287 290 291 294 297 298 298 299 300 300 303 304 305 306 307 308 309 310 310 310 309 308 307 308 308 310 310 307 303 300 297 295 292 288 285 282 279 276 272 267 261
282 286 291 291 291 298 300 299 300 302 304 305 306 307 306 307 307 307 308 310 310 309 309 309 311 312 312 311 310 307 303 300 299 296 293 289 284 280 277 274 271 266 262
285 289 291 291 292 297 300 301 304 305 306 307 307 306 307 307 308 309 310 312 310 309 311 313 313 315 314 313 311 307 305 303 300 298 294 290 286 281 276 271 268 265 261
290 292 291 290 295 298 300 305 306 307 308 308 307 307 307 308 309 310 311 311 310 312 314 314 315 315 315 314 312 308 306 305 302 299 295 292 288 283 277 272 268 264 262
285 286 292 295 297 298 304 306 307 306 306 306 307 307 307 308 309 310 311 311 313 315 315 315 316 316 315 314 311 309 307 305 303 299 296 293 290 285 280 273 268 264 261
285 289 293 295 297 303 306 307 306 306 306 307 308 308 309 310 312 313 312 314 314 314 315 316 317 316 315 313 311 310 308 306 304 300 296 295 291 286 280 273 268 263 259
286 290 295 298 301 304 305 304 305 306 309 310 311 312 312 313 313 312 312 313 313 314 315 316 317 316 315 312 311 310 308 306 304 300 297 298 291 287 280 273 267 262 257
292 296 298 301 303 303 303 303 304 308 309 309 310 311 311 311 310 311 312 312 313 315 315 316 317 315 314 311 311 310 307 306 304 300 297 299 289 288 281 274 268 263 258
297 298 299 302 303 303 303 305 307 308 309 309 309 310 310 309 310 311 311 313 314 314 315 316 317 314 313 311 311 310 307 305 304 300 297 295 288 289 285 277 269 263 257
296 299 301 301 302 302 303 305 306 307 308 308 308 309 309 309 310 310 311 313 313 314 314 317 315 313 312 310 311 308 306 304 303 301 298 295 291 289 284 276 269 263 259
299 301 300 300 300 302 304 305 306 307 307 308 309 309 308 308 309 310 311 312 313 314 314 315 312 311 310 310 310 306 305 303 302 300 298 296 290 287 283 277 269 264 259
299 299 299 301 303 303 304 305 306 307 308 308 307 307 308 308 309 310 311 312 313 312 314 313 310 311 309 310 308 307 305 303 302 301 298 296 291 285 281 276 273 264 257
299 300 302 302 303 305 306 307 307 306 306 306 306 306 307 308 309 310 311 312 311 311 313 312 310 309 308 308 306 306 304 302 301 300 298 295 290 287 278 277 272 265 255
Height
10710 10710 10710 10707 10702 10702 10699 10696 10692 10690 10685 10680 10673 10666 10658 10651 10644 10637 10631 10624 10619 10616 10612 10609 10603 10595 10588 10583 10579 10575 10571 10569 10568 10566 10563 10560 10559 10558 10559 10558 10558 10558 10559
10701 10701 10700 10696 10695 10692 10688 10684 10680 10675 10670 10664 10656 10648 10642 10635 10629 10623 10616 10612 10606 10602 10597 10592 10588 10582 10574 10567 10562 10556 10552 10548 10545 10541 10539 10538 10535 10534 10535 10533 10533 10535 10537
10693 10694 10690 10687 10684 10680 10676 10672 10668 10662 10655 10650 10641 10633 10627 10621 10616 10609 10603 10598 10593 10587 10582 10575 10570 10565 10561 10555 10547 10541 10534 10528 10522 10518 10515 10511 10508 10508 10508 10508 10508 10510 10512
10686 10683 10681 10679 10674 10670 10665 10659 10654 10647 10643 10635 10628 10621 10614 10608 10602 10596 10589 10582 10576 10572 10564 10557 10552 10547 10542 10537 10532 10523 10515 10509 10503 10496 10490 10487 10485 10481 10482 10482 10483 10484 10487
10674 10673 10668 10666 10660 10656 10651 10646 10641 10634 10628 10621 10616 10610 10604 10597 10590 10581 10575 10568 10559 10551 10546 10539 10533 10528 10521 10514 10508 10502 10496 10489 10481 10473 10467 10462 10458 10456 10455 10454 10454 10457 10461
10664 10660 10658 10654 10649 10642 10638 10632 10627 10619 10614 10609 10605 10599 10590 10582 10575 10568 10561 10553 10545 10537 10529 10521 10514 10508 10498 10491 10485 10476 10469 10461 10455 10448 10441 10435 10430 10427 10425 10424 10422 10423 10425
10651 10648 10645 10640 10635 10630 10624 10621 10613 10607 10603 10596 10592 10588 10576 10567 10558 10552 10542 10536 10529 10520 10511 10504 10493 10484 10480 10470 10461 10450 10443 10434 10426 10419 10413 10405 10400 10395 10391 10389 10389 10389 10390
10639 10635 10632 10628 10621 10617 10612 10607 10603 10596 10590 10582 10575 10570 10564 10560 10546 10534 10525 10517 10508 10500 10492 10482 10471 10461 10449 10438 10435 10426 10416 10403 10394 10383 10374 10367 10362 10359 10357 10354 10353 10353 10357
10627 10624 10621 10616 10610 10606 10600 10595 10590 10583 10576 10569 10560 10552 10546 10537 10530 10528 10511 10498 10489 10479 10469 10460 10449 10437 10425 10413 10404 10394 10386 10369 10358 10347 10337 10331 10326 10322 10318 10316 10315 10316 10319
10617 10612 10608 10605 10599 10592 10587 10582 10575 10569 10560 10554 10549 10536 10528 10517 10507 10496 10496 10484 10468 10456 10448 10434 10423 10413 10402 10388 10377 10366 10349 10339 10326 10313 10301 10293 10286 10282 10278 10276 10276 10278 10282
10606 10603 10599 10591 10586 10580 10574 10567 10560 10553 10547 10540 10532 10525 10513 10500 10487 10475 10464 10452 10450 10438 10424 10411 10399 10385 10375 10361 10345 10335 10324 10308 10292 10278 10265 10255 10250 10246 10241 10239 10238 10240 10243
10593 10589 10583 10578 10572 10567 10560 10553 10546 10539 10532 10524 10516 10504 10493 10482 10472 10462 10448 10434 10421 10407 10396 10383 10372 10360 10346 10332 10319 10301 10285 10273 10255 10242 10231 10221 10214 10210 10206 10204 10204 10204 10209
10579 10577 10572 10566 10560 10553 10547 10539 10530 10524 10515 10508 10498 10486 10473 10462 10450 10437 10426 10412 10398 10384 10372 10361 10345 10330 10316 10301 10283 10270 10249 10236 10219 10207 10198 10190 10181 10177 10172 10172 10172 10172 10175
10569 10565 10558 10553 10545 10539 10531 10524 10515 10506 10497 10489 10480 10466 10454 10443 10431 10418 10406 10393 10378 10362 10345 10336 10328 10309 10286 10267 10252 10237 10220 10204 10190 10180 10171 10162 10155 10150 10146 10145 10144 10145 10146
10556 10551 10546 10539 10531 10523 10514 10505 10497 10486 10477 10469 10460 10447 10434 10423 10411 10399 10386 10371 10358 10344 10324 10301 10288 10273 10258 10241 10226 10208 10190 10176 10164 10153 10144 10137 10132 10128 10124 10120 10118 10118 10121
10543 10539 10532 10524 10517 10508 10498 10488 10478 10467 10458 10450 10441 10428 10415 10401 10388 10376 10361 10347 10332 10318 10304 10277 10257 10243 10225 10209 10197 10180 10165 10151 10139 10128 10119 10113 10109 10106 10102 10098 10096 10097 10098
10532 10525 10516 10509 10502 10492 10481 10470 10458 10448 10437 10428 10419 10407 10393 10380 10364 10351 10337 10322 10306 10289 10273 10253 10233 10214 10203 10181 10166 10154 10142 10130 10119 10108 10097 10091 10088 10084 10081 10078 10076 10077 10078
10518 10510 10502 10495 10486 10475 10464 10453 10440 10431 10421 10409 10397 10385 10372 10360 10344 10328 10311 10295 10278 10259 10242 10228 10205 10187 10173 10158 10144 10133 10121 10111 10101 10089 10079 10073 10069 10064 10062 10058 10057 10059 10060
10505 10498 10489 10480 10470 10458 10447 10434 10420 10411 10401 10387 10373 10360 10347 10332 10316 10298 10282 10266 10250 10234 10216 10201 10183 10163 10149 10135 10122 10111 10100 10091 10082 10070 10062 10057 10052 10048 10044 10040 10040 10041 10042
10492 10484 10473 10464 10453 10443 10432 10419 10406 10393 10379 10364 10349 10336 10321 10305 10290 10272 10257 10242 10226 10207 10189 10175 10159 10142 10126 10112 10101 10091 10078 10072 10064 10052 10047 10043 10033 10032 10026 10023 10023 10024 10025
10476 10467 10455 10446 10436 10426 10414 10403 10389 10375 10361 10346 10331 10317 10301 10285 10268 10251 10233 10215 10199 10181 10164 10151 10136 10118 10104 10091 10082 10072 10062 10053 10045 10036 10030 10033 10013 10015 10011 10009 10008 10009 10010
10457 10449 10438 10428 10417 10405 10393 10380 10367 10355 10340 10325 10311 10295 10280 10263 10243 10227 10210 10193 10173 10154 10141 10128 10113 10095 10083 10071 10062 10053 10043 10036 10028 10024 10014 10017 10003 10001 9997 9995 9994 9994 9996
10439 10432 10421 10410 10399 10386 10374 10361 10348 10336 10322 10304 10289 10273 10255 10236 10221 10201 10186 10169 10152 10135 10118 10105 10090 10076 10064 10052 10044 10034 10026 10019 10014 10008 9999 9999 9992 9988 9984 9981 9980 9981 9983
10421 10412 10402 10391 10380 10366 10352 10339 10326 10312 10298 10280 10264 10247 10230 10212 10192 10178 10159 10146 10129 10112 10099 10087 10070 10057 10045 10036 10027 10018 10011 10003 9999 9995 9986 9980 9980 9977 9971 9967 9968 9969 9970
10404 10393 10380 10369 10357 10343 10329 10314 10302 10288 10272 10256 10241 10222 10203 10186 10167 10154 10136 10121 10102 10086 10080 10066 10050 10039 10026 10017 10009 10003 9996 9988 9982 9979 9974 9968 9963 9964 9960 9955 9954 9957 9957
10384 10373 10360 10348 10334 10320 10303 10286 10274 10263 10251 10234 10217 10197 10180 10161 10140 10128 10110 10096 10080 10062 10057 10048 10029 10021 10011 10003 9994 9989 9981 9974 9969 9964 9961 9955 9951 9948 9950 9943 9942 9942 9943